CW6617 Weather Reports


Display with metric or nautical units.
time (UTC)temp
F
wind
direction
speed
MPH
gust
MPH
rain 1hr
in
rain 24hr
in
rain mn
in
humidity
%
barometer
mb
20260505200703 56 13 3.0 9.0 0.00 0.00 0.00 74 1012.1
20260505193703 57 359 2.0 5.0 0.00 0.00 0.00 73 1011.8
20260505193203 57 312 1.0 5.0 0.00 0.00 0.00 73 1011.7
20260505191704 57 313 1.0 3.0 0.00 0.00 0.00 73 1011.6
20260505191204 57 305 2.0 6.0 0.00 0.00 0.00 72 1011.6
20260505190703 57 308 3.0 6.0 0.00 0.00 0.00 72 1011.5
20260505190204 57 17 3.0 10.0 0.00 0.00 0.00 72 1011.4
20260505184203 58 343 2.0 7.0 0.00 0.00 0.00 72 1011.3
20260505183704 58 17 3.0 9.0 0.00 0.00 0.00 71 1011.3
20260505183204 58 328 1.0 9.0 0.00 0.00 0.00 71 1011.3
20260505181705 58 306 4.0 9.0 0.00 0.00 0.00 70 1011.2
20260505181203 58 347 3.0 6.0 0.00 0.00 0.00 70 1011.3
20260505180703 58 337 3.0 8.0 0.00 0.00 0.00 70 1011.4
20260505180203 59 299 2.0 10.0 0.00 0.00 0.00 70 1011.3
20260505173704 58 348 3.0 7.0 0.00 0.00 0.00 71 1011.4
20260505173204 58 310 3.0 10.0 0.00 0.00 0.00 71 1011.4
20260505171704 58 327 2.0 5.0 0.00 0.00 0.00 72 1011.3
20260505170703 58 285 2.0 5.0 0.00 0.00 0.00 73 1011.3
20260505164703 58 299 1.0 5.0 0.00 0.00 0.00 73 1011.4
20260505164204 58 299 2.0 5.0 0.00 0.00 0.00 73 1011.4
20260505163704 58 355 1.0 5.0 0.00 0.00 0.00 73 1011.4
20260505163204 58 354 1.0 8.0 0.00 0.00 0.00 73 1011.5
20260505161703 59 309 2.0 8.0 0.00 0.00 0.00 72 1011.5
20260505161204 59 303 2.0 9.0 0.00 0.00 0.00 72 1011.5
20260505160704 59 300 3.0 6.0 0.00 0.00 0.00 71 1011.6
20260505160203 59 317 3.0 8.0 0.00 0.00 0.00 71 1011.5
20260505153204 60 63 3.0 9.0 0.00 0.00 0.00 68 1011.5
20260505151703 60 342 1.0 5.0 0.00 0.00 0.00 68 1011.4
20260505151204 60 303 0.0 6.0 0.00 0.00 0.00 68 1011.4
20260505150703 60 303 3.0 8.0 0.00 0.00 0.00 67 1011.5
20260505150203 60 13 3.0 8.0 0.00 0.00 0.00 68 1011.5
20260505140204 59 36 1.0 9.0 0.00 0.00 0.00 69 1011.7
20260505124704 61 2 5.0 9.0 0.00 0.00 0.00 65 1012.1
20260505124203 61 291 6.0 9.0 0.00 0.00 0.00 68 1012.0
20260505123704 60 293 6.0 12.0 0.00 0.00 0.00 69 1012.1
20260505123203 60 317 5.0 12.0 0.00 0.00 0.00 69 1012.1
20260505121703 62 299 2.0 6.0 0.00 0.00 0.00 67 1012.0
20260505121204 61 302 7.0 12.0 0.00 0.00 0.00 69 1012.0
20260505120703 60 40 2.0 5.0 0.00 0.00 0.00 70 1012.0
20260505120204 59 63 1.0 10.0 0.00 0.00 0.00 71 1012.1
20260505114704 60 331 3.0 8.0 0.00 0.00 0.00 74 1012.2
20260505114203 58 2 3.0 8.0 0.00 0.00 0.00 75 1012.2
20260505113703 58 303 4.0 8.0 0.00 0.00 0.00 75 1012.3
20260505111705 57 58 3.0 8.0 0.00 0.00 0.00 74 1012.5
20260505111204 58 50 2.0 7.0 0.00 0.00 0.00 76 1012.5
20260505110703 57 300 4.0 8.0 0.00 0.00 0.00 77 1012.6
20260505110203 56 298 2.0 10.0 0.00 0.00 0.00 79 1012.6
20260505101704 55 29 2.0 5.0 0.00 0.00 0.00 81 1012.9
20260505101203 55 53 3.0 7.0 0.00 0.00 0.00 80 1012.9
20260505100704 55 34 2.0 6.0 0.00 0.00 0.00 80 1012.9
20260505100206 55 348 2.0 12.0 0.00 0.00 0.00 79 1012.9
20260505094703 55 39 3.0 9.0 0.00 0.00 0.00 83 1012.8
20260505093704 54 52 6.0 10.0 0.00 0.00 0.00 83 1012.9
20260505093204 54 66 3.0 8.0 0.00 0.00 0.00 83 1013.0
20260505091204 54 313 2.0 9.0 0.00 0.00 0.00 84 1013.0
20260505090703 54 301 3.0 8.0 0.00 0.00 0.00 85 1013.1
20260505090204 54 302 3.0 8.0 0.00 0.00 0.00 85 1013.1
20260505084703 54 300 1.0 5.0 0.00 0.00 0.00 86 1013.3
20260505084203 53 19 2.0 6.0 0.00 0.00 0.00 87 1013.3
20260505083704 53 64 3.0 7.0 0.00 0.00 0.00 87 1013.2
20260505083205 53 297 1.0 8.0 0.00 0.00 0.00 87 1013.3
20260505081203 53 310 3.0 5.0 0.00 0.00 0.00 88 1013.3
20260505080703 53 311 1.0 5.0 0.00 0.00 0.00 88 1013.2
20260505080204 52 41 1.0 9.0 0.00 0.00 0.00 88 1013.3
20260505074703 52 320 2.0 8.0 0.00 0.00 0.00 88 1013.1
20260505074204 52 358 2.0 6.0 0.00 0.00 0.00 88 1013.2
20260505073704 53 299 3.0 8.0 0.00 0.00 0.00 88 1013.2
20260505073203 53 345 2.0 8.0 0.00 0.00 0.00 88 1013.2
20260505071704 53 330 1.0 5.0 0.00 0.00 0.00 88 1013.3
20260505070206 53 29 2.0 7.0 0.00 0.00 0.00 89 1013.3
20260505064704 52 9 2.0 6.0 0.00 0.00 0.00 91 1013.4
20260505064203 52 320 2.0 3.0 0.00 0.00 0.00 91 1013.4
20260505063704 52 309 3.0 6.0 0.00 0.00 0.00 91 1013.3
20260505063204 52 342 1.0 6.0 0.00 0.00 0.00 92 1013.4
20260505061704 51 317 1.0 2.0 0.00 0.00 0.00 92 1013.2
20260505061204 51 320 1.0 3.0 0.00 0.00 0.00 91 1013.2
20260505060703 51 10 2.0 5.0 0.00 0.00 0.00 92 1013.3
20260505060204 51 297 1.0 6.0 0.00 0.00 0.00 92 1013.3
20260505054203 51 319 2.0 3.0 0.00 0.00 0.00 92 1013.3
20260505053706 51 19 1.0 3.0 0.00 0.00 0.00 92 1013.4
20260505053203 51 313 1.0 3.0 0.00 0.00 0.00 92 1013.4
20260505051704 51 47 1.0 5.0 0.00 0.00 0.00 92 1013.3
20260505051203 51 59 2.0 5.0 0.00 0.00 0.00 92 1013.3
20260505050703 50 61 2.0 6.0 0.00 0.00 0.00 92 1013.3
20260505050203 50 5 0.0 5.0 0.00 0.00 0.00 92 1013.3
20260505041703 50 314 2.0 5.0 0.00 0.00 0.00 92 1013.5
20260505041204 50 304 1.0 3.0 0.00 0.00 0.00 92 1013.6
20260505040704 50 309 2.0 5.0 0.00 0.00 0.00 92 1013.6
20260505034704 50 51 1.0 2.0 0.00 0.00 0.00 92 1013.5
20260505034204 50 51 0.0 1.0 0.00 0.00 0.00 91 1013.5
20260505033704 50 51 0.0 1.0 0.00 0.00 0.00 91 1013.4
20260505033203 50 51 0.0 2.0 0.00 0.00 0.00 91 1013.5
20260505031704 50 51 0.0 1.0 0.00 0.00 0.00 90 1013.4
20260505030704 51 51 0.0 2.0 0.00 0.00 0.00 90 1013.4
20260505030203 51 51 0.0 1.0 0.00 0.00 0.00 90 1013.3
20260505024704 51 51 1.0 2.0 0.00 0.00 0.00 90 1013.3
20260505024204 51 51 1.0 2.0 0.00 0.00 0.00 90 1013.4
20260505023703 51 52 1.0 5.0 0.00 0.00 0.00 90 1013.4
20260505023203 51 314 0.0 3.0 0.00 0.00 0.00 89 1013.4
20260505021704 52 309 1.0 3.0 0.00 0.00 0.00 90 1013.4
20260505021203 52 307 2.0 3.0 0.00 0.00 0.00 90 1013.4
20260505020703 52 19 1.0 5.0 0.00 0.00 0.00 90 1013.5
20260505020204 52 57 1.0 3.0 0.00 0.00 0.00 90 1013.6
20260505014704 52 332 2.0 3.0 0.00 0.00 0.00 89 1013.5
20260505013704 52 46 0.0 2.0 0.00 0.00 0.00 89 1013.9
20260505013203 52 45 1.0 5.0 0.00 0.00 0.00 89 1013.7
20260505011704 52 21 2.0 5.0 0.00 0.00 0.00 88 1013.9
20260505011204 52 338 1.0 2.0 0.00 0.00 0.00 88 1014.0
20260505010704 53 326 0.0 2.0 0.00 0.00 0.00 88 1013.9
20260505010204 53 326 1.0 3.0 0.00 0.00 0.00 88 1014.0
20260505004203 53 342 1.0 2.0 0.00 0.00 0.00 88 1013.9
20260505003704 53 344 1.0 3.0 0.00 0.00 0.00 88 1013.8
20260505003203 53 48 1.0 5.0 0.00 0.00 0.00 88 1014.0
20260505001203 53 60 3.0 6.0 0.00 0.00 0.00 87 1014.1
20260505000703 53 50 3.0 6.0 0.00 0.00 0.00 87 1014.2
20260505000204 53 47 2.0 7.0 0.00 0.00 0.00 87 1014.3
20260504234704 53 30 1.0 5.0 0.00 0.00 0.00 87 1014.3
20260504234204 53 58 2.0 6.0 0.00 0.00 0.00 87 1014.4
20260504233704 53 39 2.0 7.0 0.00 0.00 0.00 87 1014.5
20260504233204 53 69 4.0 7.0 0.00 0.00 0.00 87 1014.5
20260504231703 53 70 2.0 7.0 0.00 0.00 0.00 87 1014.5
20260504231204 53 52 1.0 5.0 0.00 0.00 0.00 87 1014.6
20260504230703 53 57 2.0 7.0 0.00 0.00 0.00 87 1014.6
20260504230204 54 60 2.0 7.0 0.00 0.00 0.00 87 1014.5
20260504224704 54 6 3.0 6.0 0.00 0.00 0.00 87 1014.6
20260504224204 54 68 2.0 5.0 0.00 0.00 0.00 86 1014.6
20260504223704 54 52 0.0 3.0 0.00 0.00 0.00 86 1014.7
20260504221704 55 16 2.0 6.0 0.00 0.00 0.00 85 1014.5
20260504221204 55 351 2.0 5.0 0.00 0.00 0.00 85 1014.6
20260504220704 55 5 1.0 8.0 0.00 0.00 0.00 85 1014.6
20260504214704 55 34 3.0 6.0 0.00 0.00 0.00 84 1014.7
20260504214204 55 2 1.0 5.0 0.00 0.00 0.00 84 1014.7
20260504213203 56 351 3.0 8.0 0.00 0.00 0.00 84 1014.8
20260504211204 56 45 1.0 6.0 0.00 0.00 0.00 84 1014.9
20260504210705 56 10 1.0 6.0 0.00 0.00 0.00 84 1014.8
20260504204703 56 20 3.0 12.0 0.00 0.00 0.00 84 1014.9
20260504204204 56 10 2.0 6.0 0.00 0.00 0.00 84 1014.8
20260504203704 56 22 3.0 8.0 0.00 0.00 0.00 84 1014.7
20260504203204 56 32 2.0 5.0 0.00 0.00 0.00 84 1014.6
20260504201704 57 58 3.0 7.0 0.00 0.00 0.00 83 1014.6
20260504201203 57 48 4.0 8.0 0.00 0.00 0.00 84 1014.6